Theta_e
349 350 350 349 350 350 350 350 350 351 351 351 351 349 349 349 351 352 352 352 352 352 352 352 351 351 350 349 345 345 344 345 345 346 347 347 349 354 363 362 362 361 361 361 360 360 359 359 358 359 358 358 359 361 361 361 362 362 362 363 364 364 364 364 363 363 364 364 364 365 364 365 365 365 365 364 363 363 363 361 359 358 357 358 356
350 348 348 348 348 349 349 349 350 351 350 350 351 350 349 348 350 351 352 351 351 351 354 351 350 348 347 347 343 343 343 345 345 346 347 348 348 352 364 363 363 362 362 362 362 361 361 361 361 361 361 361 361 362 362 363 362 363 364 364 364 364 365 364 364 365 364 364 365 365 365 365 366 365 364 364 364 363 361 358 357 356 355 356 355
350 348 347 347 347 347 347 348 348 349 351 351 352 353 352 351 352 351 350 350 350 350 352 349 348 343 343 343 339 342 344 346 346 347 347 347 347 350 356 365 364 363 363 363 362 362 362 362 362 362 362 363 363 363 363 364 365 364 364 364 365 365 365 365 365 365 365 365 365 366 366 365 365 364 364 365 364 362 359 357 357 356 355 355 354
349 348 348 346 346 346 347 347 348 349 351 351 351 353 354 354 353 353 352 352 352 352 352 349 345 343 339 339 338 342 345 346 346 347 347 347 346 348 350 357 365 364 364 363 362 362 362 362 362 362 363 364 364 364 365 365 365 365 365 366 365 365 366 366 366 366 366 366 365 366 366 365 365 364 365 364 363 362 360 358 356 356 355 354 354
348 349 352 347 347 346 347 350 349 349 350 353 353 352 351 351 351 353 352 352 353 351 351 347 343 341 337 338 336 339 344 346 347 347 346 346 345 345 348 352 355 364 365 364 364 364 363 363 362 363 363 363 363 364 364 364 363 365 367 367 366 367 368 368 368 368 367 366 366 366 365 365 365 365 364 363 362 361 360 358 357 355 355 354 354
347 347 348 348 347 347 348 348 349 350 351 352 351 351 353 352 351 353 359 354 350 352 350 347 344 341 338 337 335 336 341 346 347 347 346 345 345 345 347 348 352 354 357 365 365 364 364 365 364 364 364 364 365 365 365 366 366 366 366 367 368 368 369 369 369 369 368 368 367 366 366 366 366 365 364 363 362 361 360 359 357 356 354 355 354
348 348 348 348 348 347 348 348 349 351 350 354 354 354 351 351 357 352 353 351 353 355 353 346 343 339 340 340 336 336 339 343 347 347 347 345 345 345 346 347 349 351 353 352 363 365 365 365 365 365 365 365 366 366 366 367 368 368 368 369 369 370 370 370 370 369 369 368 368 367 367 367 366 365 365 364 363 362 360 359 357 356 355 355 355
349 349 347 348 348 347 347 349 354 356 355 355 356 352 351 352 354 355 351 352 357 352 350 347 348 345 341 338 336 342 337 340 343 347 348 347 345 343 344 345 347 348 356 352 352 357 364 366 366 366 367 368 368 368 368 368 368 369 370 370 371 371 371 371 370 369 370 369 369 369 368 368 366 365 364 364 363 362 361 360 358 358 356 355 356
351 351 349 348 347 347 348 356 358 354 353 352 352 356 352 353 350 357 354 350 351 351 350 349 350 346 337 337 334 342 337 337 339 344 349 346 344 342 342 343 346 357 350 351 350 350 356 364 366 367 367 367 368 368 369 370 368 369 369 370 370 371 371 369 369 370 370 370 369 370 370 370 368 366 365 365 364 363 362 360 359 358 357 356 356
353 353 351 350 348 349 355 356 355 353 351 351 351 354 353 352 351 351 354 350 349 349 350 350 351 349 341 335 340 343 337 336 337 351 344 345 345 343 342 342 345 346 348 349 349 348 347 352 361 367 367 367 367 366 367 368 370 370 371 369 369 369 369 370 371 371 371 371 370 371 371 370 369 368 366 365 364 364 363 361 360 358 358 357 356
356 358 355 353 350 354 355 356 355 352 351 350 350 355 356 350 350 354 355 353 352 351 351 351 351 350 341 335 337 340 338 337 342 342 340 343 346 347 346 345 345 345 346 348 348 346 345 345 343 345 348 358 365 369 370 369 370 370 370 369 372 369 368 369 369 369 371 371 372 371 372 371 369 368 366 365 364 364 363 362 361 359 359 357 356
356 356 354 354 355 355 355 357 355 351 348 348 348 350 352 353 353 357 355 354 353 351 350 346 342 336 345 341 338 340 339 347 345 339 340 339 343 349 347 347 348 348 350 351 351 348 345 344 350 344 344 349 356 361 364 368 371 372 374 374 374 373 373 371 367 369 370 373 372 372 372 371 370 369 368 366 365 364 364 362 362 360 359 357 357
358 355 354 360 356 355 356 356 356 354 352 350 352 352 358 356 357 355 357 351 347 350 349 339 333 332 333 333 333 339 349 352 339 338 338 337 338 342 346 347 346 347 350 353 354 352 348 346 345 344 344 343 345 353 357 362 366 366 367 371 370 374 376 374 368 369 370 372 373 372 370 369 370 369 368 367 366 365 364 363 363 361 360 359 357
359 357 357 355 355 356 355 355 356 353 354 356 359 364 355 352 352 348 349 352 346 350 351 339 334 328 329 328 331 332 340 346 339 337 337 338 338 338 340 343 343 344 345 346 351 353 352 351 349 347 345 344 344 345 347 351 355 361 366 368 370 372 374 375 370 371 372 375 373 371 370 369 370 370 369 367 366 366 365 364 363 362 361 360 358
359 359 356 356 356 355 355 354 353 358 354 350 349 350 352 352 351 349 349 348 352 355 350 340 335 336 334 330 323 325 332 332 337 337 337 337 336 336 338 340 342 342 342 341 342 347 352 353 351 349 348 347 347 348 350 358 358 365 364 363 363 366 371 375 371 370 370 372 371 371 370 369 369 370 369 368 368 367 366 364 364 363 362 360 359
358 358 357 355 354 355 354 354 354 359 351 350 347 349 350 351 350 354 350 342 345 346 357 347 339 332 327 328 325 327 322 325 329 334 339 335 335 335 337 338 339 340 340 339 340 342 346 351 351 350 350 350 350 350 352 353 358 366 369 370 367 366 367 369 372 371 370 369 368 369 371 370 369 369 368 368 368 368 367 365 364 363 362 361 360
357 358 359 356 354 354 355 353 355 357 355 350 351 352 353 351 350 352 348 345 344 345 348 353 347 340 337 328 324 323 323 325 332 331 335 336 333 333 338 339 338 338 340 338 339 340 344 347 349 350 350 351 349 348 350 352 354 362 363 366 368 367 367 370 372 373 375 369 368 367 368 367 368 368 369 369 369 368 367 366 365 364 363 362 361
355 356 359 359 357 355 353 354 355 357 357 352 352 352 351 352 351 350 349 349 347 341 344 350 352 354 341 334 331 330 326 329 328 325 332 344 341 339 334 337 337 338 338 337 337 337 345 343 344 344 345 344 344 345 347 350 358 357 357 357 368 366 367 368 370 373 374 374 369 367 367 366 366 367 367 368 369 368 367 366 365 365 364 363 362
355 355 357 359 356 355 354 355 355 355 362 354 352 353 354 353 359 353 351 358 345 342 343 347 346 347 351 349 351 350 336 332 329 329 324 328 333 337 330 332 333 333 334 336 337 337 337 342 343 341 340 341 343 347 350 352 359 364 368 367 366 368 367 365 366 369 372 372 370 368 367 367 366 367 368 367 368 368 366 366 365 365 364 364 363
353 353 356 358 356 355 354 355 355 356 360 357 354 353 355 353 361 360 358 355 348 346 344 346 343 345 351 347 348 350 342 341 333 331 328 326 329 335 333 333 337 337 340 335 336 337 337 338 338 339 340 341 343 346 349 351 350 350 353 358 364 366 367 366 367 368 370 373 373 369 367 368 367 367 366 367 367 367 366 365 365 366 366 366 364
353 353 356 357 360 355 354 355 353 353 361 359 356 357 354 352 351 352 350 351 352 354 346 345 345 345 341 341 341 340 339 339 341 338 332 326 328 329 330 334 332 334 340 339 335 336 339 337 338 343 347 349 347 347 350 351 350 350 356 360 365 368 369 368 368 368 370 370 374 369 368 368 368 367 367 367 366 367 366 366 366 366 366 366 365
352 352 355 357 357 357 355 356 355 354 360 357 355 354 354 353 353 353 351 351 351 353 352 348 348 348 344 342 338 337 335 334 335 335 333 332 330 332 332 331 329 332 339 338 341 341 338 338 339 337 340 345 348 348 349 350 352 354 356 362 366 367 369 369 368 368 368 368 368 368 368 368 367 367 366 366 367 367 367 366 365 365 365 366 365
351 353 355 356 357 359 357 358 357 361 360 355 355 354 354 354 355 355 356 351 351 353 353 354 350 349 346 342 339 338 336 335 334 334 334 332 329 330 334 338 335 332 339 341 353 343 339 340 339 341 344 346 350 353 355 355 363 361 364 365 362 365 366 367 366 366 366 365 366 367 369 371 367 366 367 366 365 365 366 363 364 364 364 363 364
349 351 353 356 357 358 360 359 359 356 357 357 355 355 354 355 354 354 354 355 354 357 349 349 351 348 348 347 345 343 343 337 337 337 335 336 332 331 333 336 336 336 339 342 339 340 341 341 342 344 345 347 352 359 360 360 356 364 364 363 360 363 364 366 365 365 364 363 362 364 367 366 369 368 366 366 365 364 364 364 363 363 363 363 363
349 350 352 354 357 356 357 357 357 359 358 356 354 356 354 356 353 356 356 354 354 353 350 351 351 348 349 349 349 344 342 343 342 339 340 339 335 335 337 340 336 337 338 343 344 344 343 345 345 344 348 353 356 356 356 356 354 360 365 361 360 361 361 362 364 364 362 362 362 362 362 362 362 361 359 359 359 360 361 362 363 363 363 363 363
349 350 353 355 357 357 358 358 357 358 359 357 356 355 355 354 354 354 354 353 355 353 353 355 350 352 350 349 350 349 347 348 344 343 342 339 335 338 338 335 339 338 339 340 342 342 344 347 348 347 350 355 354 354 354 355 356 360 364 363 356 356 358 359 362 362 362 362 361 361 361 361 362 363 362 360 361 361 361 361 360 362 362 363 363
351 352 354 354 355 357 357 357 357 358 359 358 360 356 356 356 358 354 354 353 354 355 353 354 356 354 352 350 353 349 348 347 346 342 341 340 339 339 339 335 333 332 337 338 341 341 343 343 347 351 352 356 353 354 355 356 359 362 364 356 353 354 354 355 357 358 359 360 359 359 358 358 358 359 360 363 362 362 362 361 361 361 362 362 361
353 353 353 354 354 355 357 357 356 358 358 358 357 357 355 355 356 356 353 364 356 354 352 352 353 354 353 351 349 350 351 350 349 346 346 347 347 346 340 335 332 330 331 332 334 338 346 344 344 346 351 353 354 354 359 358 355 362 363 355 352 351 353 353 353 354 353 352 353 354 354 356 356 358 360 362 363 363 362 363 364 362 361 361 361
353 356 353 353 354 355 355 357 356 358 358 358 358 357 356 357 359 354 354 354 355 353 350 351 350 354 352 353 351 351 352 354 352 352 349 351 349 348 345 340 336 333 329 329 328 334 341 347 344 344 350 353 354 356 356 355 358 360 355 353 351 350 351 350 351 350 349 348 348 349 350 352 354 356 358 360 364 363 361 360 360 361 358 358 360
355 357 355 355 354 361 356 357 357 359 359 359 359 359 357 356 357 356 356 353 353 354 356 354 354 352 355 352 351 350 354 354 353 352 351 349 350 350 350 347 342 338 334 332 331 334 339 345 346 344 349 353 355 357 357 356 358 358 354 352 351 351 351 349 350 348 347 346 346 346 348 350 352 353 353 354 354 354 354 357 359 359 360 361 360
355 354 354 355 354 356 357 357 358 358 360 360 360 358 358 356 356 356 355 351 351 350 351 354 355 354 351 350 350 351 352 352 353 353 354 353 351 351 350 349 347 342 339 335 332 336 345 342 346 351 351 352 357 357 357 355 357 356 353 352 352 354 353 352 349 347 345 344 344 344 344 346 348 348 348 349 350 351 352 354 358 360 359 358 359
355 354 354 354 355 355 357 357 358 359 359 360 360 358 357 356 356 356 355 352 352 350 352 353 358 355 350 349 350 351 352 352 352 353 352 354 354 349 350 349 347 346 344 338 336 339 343 348 348 350 353 354 357 355 353 353 355 357 353 352 353 355 351 349 349 348 346 345 344 342 341 343 343 344 347 349 350 350 352 355 357 355 354 353 353
356 354 354 353 353 354 356 358 357 358 358 358 359 358 356 355 355 355 354 353 353 352 352 353 354 354 352 350 351 352 352 352 352 351 352 351 350 350 351 349 348 349 345 342 338 341 343 345 349 351 356 356 354 351 350 351 351 353 355 352 351 349 348 348 347 346 345 344 343 341 341 341 341 342 344 347 349 350 351 350 348 347 347 348 348
354 354 354 354 354 354 354 355 356 357 358 357 358 357 356 355 355 357 356 353 352 353 351 352 354 355 352 350 351 353 352 353 352 351 351 350 349 348 346 352 349 351 351 346 342 339 338 342 345 349 351 355 349 350 349 350 350 353 350 349 349 348 348 348 348 349 346 346 344 342 342 342 341 341 343 344 347 348 348 346 344 341 343 343 339
354 353 354 354 354 354 353 354 354 355 357 357 357 357 356 356 355 356 357 354 353 353 352 353 354 352 352 351 352 352 355 353 353 352 353 351 351 348 348 351 350 350 350 349 343 340 340 341 343 346 347 347 347 349 351 351 351 349 346 346 347 348 350 350 349 351 347 346 344 343 343 343 342 341 341 341 344 344 343 342 338 336 337 336 333
352 353 353 353 353 354 354 354 353 354 355 356 357 357 356 356 356 355 355 354 354 354 354 353 353 353 353 350 351 352 351 350 351 350 351 351 349 350 349 348 349 348 349 350 347 344 340 339 340 345 345 345 346 348 351 350 346 347 345 346 346 346 348 350 350 351 350 346 345 344 345 343 342 342 341 341 340 338 336 336 335 335 334 335 333
352 352 352 352 352 352 354 354 353 353 354 355 355 356 356 356 356 356 355 354 354 353 354 353 359 354 353 352 353 352 350 348 349 348 349 348 350 348 348 347 349 349 351 352 350 346 342 342 343 341 342 343 345 345 345 345 346 346 345 343 346 346 346 349 351 354 350 348 349 347 345 344 345 343 342 340 339 337 337 337 336 334 334 331 328
352 352 352 352 352 351 352 353 353 353 353 354 354 355 356 356 356 356 356 355 355 354 354 355 355 356 355 353 354 353 351 350 350 350 349 349 349 348 347 347 347 348 348 349 350 349 347 346 342 343 339 344 341 340 341 344 345 344 343 343 345 344 345 347 350 354 356 356 355 356 350 348 346 343 344 340 338 338 338 337 337 336 335 331 326
351 352 352 351 353 352 352 352 352 353 353 354 353 354 354 354 354 355 355 354 354 354 354 355 356 356 356 356 355 354 353 352 352 351 350 349 349 348 350 348 346 345 346 346 348 348 347 345 342 342 343 341 339 340 344 343 342 342 339 341 342 343 344 344 348 353 355 355 353 350 351 349 348 348 341 338 339 340 339 338 338 338 337 332 327
351 351 351 351 352 353 352 352 353 353 353 353 353 353 354 354 353 353 353 353 353 353 354 354 355 355 354 354 354 354 353 353 353 352 351 350 349 348 348 347 346 345 345 345 343 343 343 342 340 340 336 335 338 340 343 340 338 336 340 340 341 343 345 344 345 349 351 352 353 354 351 351 350 350 344 345 345 344 341 342 344 344 340 334 331
352 351 352 352 351 352 353 353 353 354 354 353 354 354 353 353 353 353 352 353 353 352 353 354 354 354 354 354 354 354 356 363 366 364 360 359 351 348 348 347 347 346 345 343 345 341 340 338 341 338 335 336 337 337 340 337 335 336 339 339 340 344 345 346 349 349 350 351 351 351 352 353 353 353 353 353 355 354 350 345 347 346 340 333 332
350 351 350 351 351 351 352 353 353 354 354 355 359 359 359 355 354 354 354 353 352 352 353 352 353 353 353 353 355 364 366 368 369 371 373 371 366 356 349 347 347 346 345 344 342 344 342 339 339 337 337 337 338 338 338 338 339 339 341 340 341 345 345 344 345 344 349 351 349 349 351 354 354 352 353 352 354 354 352 352 350 342 336 332 333
348 349 350 348 349 350 351 353 352 353 355 357 357 344 346 355 359 354 354 353 352 352 352 351 351 351 352 352 351 357 364 368 365 370 368 367 370 369 366 363 359 350 346 344 343 342 340 340 338 337 337 338 340 339 337 340 342 340 340 340 342 343 340 339 340 345 346 350 348 347 349 353 352 350 351 351 352 352 353 353 338 336 334 334 334
348 349 349 348 349 349 350 351 352 352 353 357 344 341 343 344 357 356 354 353 352 351 352 352 351 351 351 351 352 353 353 352 351 350 359 365 361 363 363 363 363 363 358 350 346 341 338 338 337 338 337 337 336 338 341 341 340 340 342 341 339 339 340 339 340 340 347 352 349 347 347 351 351 350 348 350 352 353 354 344 337 334 334 334 333
347 348 347 347 347 348 349 349 350 352 352 347 339 339 339 338 341 357 352 352 351 350 350 350 351 351 351 351 351 351 351 360 366 353 349 352 361 359 359 361 363 359 347 345 347 347 340 338 336 335 336 337 338 341 344 343 342 340 340 340 339 338 338 339 340 342 348 352 349 346 345 348 348 348 347 350 352 353 353 345 338 336 335 333 332
343 344 345 344 344 343 345 347 349 350 351 347 336 335 335 335 336 344 347 349 350 350 350 350 351 351 350 350 349 349 351 352 350 349 348 348 350 350 349 348 347 355 357 350 344 344 347 342 339 338 342 343 343 344 349 347 343 342 340 340 338 338 340 342 345 347 350 354 348 345 341 345 348 347 346 349 352 352 353 343 335 335 335 333 332
341 341 342 344 345 347 345 345 344 346 350 342 332 332 331 331 333 344 340 342 345 347 349 350 350 351 351 351 350 349 349 347 350 353 346 347 348 349 346 348 349 350 348 351 351 350 349 348 346 345 346 347 346 348 348 345 345 345 343 342 341 342 345 346 345 346 350 349 348 345 340 345 347 346 346 349 351 351 352 343 337 336 336 333 333
342 342 343 344 343 344 344 344 344 343 341 325 326 328 328 328 333 341 340 339 339 342 345 347 348 348 349 350 350 349 345 342 350 344 352 351 346 346 347 347 348 346 347 349 340 347 349 348 348 349 349 348 344 344 345 342 341 342 345 346 345 342 342 341 341 345 344 349 349 345 342 343 346 344 345 349 350 349 351 350 341 340 337 335 334
342 341 342 344 345 345 345 345 343 342 341 330 322 323 323 323 329 336 340 341 341 341 342 346 348 348 349 350 350 347 342 341 338 327 334 359 345 343 344 344 347 346 345 348 339 338 337 335 334 335 334 332 335 336 334 334 339 341 342 344 342 342 341 341 343 343 343 346 345 347 343 341 344 344 344 347 348 347 347 348 350 339 335 335 333
342 343 344 344 345 346 347 346 346 344 342 331 322 320 319 320 330 337 340 341 341 341 342 347 349 349 351 362 357 345 342 341 332 328 329 353 345 345 345 345 344 343 340 343 348 347 341 341 340 337 337 340 341 341 340 338 337 344 345 340 341 342 342 342 339 341 343 345 346 347 341 338 343 344 343 347 347 343 344 347 347 344 337 335 332
343 343 346 343 344 345 347 348 353 350 343 333 318 317 317 317 326 337 341 344 343 342 344 346 349 350 350 361 360 349 344 339 321 324 329 350 344 344 344 343 343 341 337 338 341 340 339 338 338 343 347 351 349 347 347 349 349 353 347 346 343 340 339 339 339 337 333 339 336 336 338 339 342 344 343 342 339 343 343 345 343 343 340 340 340
Wind_Speed
4 4 2 3 2 1 0 1 1 3 2 2 1 3 3 3 4 4 3 4 4 5 5 6 5 4 5 4 3 3 4 5 5 4 4 4 5 7 12 12 11 11 10 10 9 8 8 7 7 8 8 8 8 9 9 9 9 9 9 9 10 10 11 11 11 12 12 12 12 12 12 11 11 11 11 11 12 11 8 7 6 5 4 1 0
4 3 3 2 1 0 0 1 2 3 2 3 3 3 4 4 4 3 3 3 5 6 5 6 5 4 4 4 4 4 5 5 5 5 4 4 5 5 12 12 12 11 11 10 9 9 8 8 8 9 9 9 10 10 10 10 9 9 10 10 10 10 10 11 11 12 12 12 11 11 10 9 9 9 10 10 10 8 7 6 6 6 5 3 2
3 3 2 1 1 1 2 2 4 4 3 4 3 4 4 4 4 4 4 4 5 5 4 5 5 4 3 4 4 4 5 5 4 4 4 5 5 4 6 12 12 11 11 10 10 9 9 9 9 9 10 10 10 10 10 10 10 10 10 9 9 10 10 10 10 11 11 11 10 9 9 9 9 9 9 9 8 7 6 7 7 7 7 6 5
2 2 1 1 1 2 2 2 4 4 4 4 5 4 4 3 3 3 4 4 5 5 4 4 5 5 2 3 3 4 4 5 5 5 4 3 4 4 4 5 10 11 11 11 11 10 10 10 10 10 11 11 11 11 11 11 11 10 10 10 9 9 10 10 10 10 10 9 9 9 9 9 9 9 8 8 8 7 7 7 8 8 8 7 7
2 1 0 1 1 2 3 4 5 4 4 4 4 3 3 4 4 3 4 2 3 5 4 3 4 5 3 3 4 3 4 4 5 4 5 4 4 4 4 4 4 8 11 11 11 11 11 11 11 12 12 11 11 11 11 11 11 11 11 10 10 10 11 11 10 10 10 9 9 8 8 9 8 8 8 7 7 7 6 7 8 8 8 8 7
2 2 1 1 2 3 4 5 5 4 3 3 4 4 4 3 3 2 3 2 4 4 2 3 4 5 3 3 4 5 5 4 5 5 4 4 4 3 4 4 4 4 4 9 11 11 12 12 12 12 12 11 11 11 11 11 11 11 11 11 10 11 11 11 10 10 10 9 9 8 8 8 8 8 7 7 7 7 7 7 8 8 9 8 7
3 3 3 2 3 4 4 5 4 3 3 3 2 3 1 1 1 3 3 3 3 4 3 4 5 2 1 2 5 4 4 5 4 4 4 4 3 3 4 4 4 4 4 5 7 11 12 12 12 12 12 11 11 11 11 11 11 11 11 11 11 11 11 11 11 9 9 10 10 9 9 8 8 8 8 8 8 8 7 7 8 9 9 9 8
3 3 4 4 4 4 5 4 4 3 2 0 2 1 1 1 1 1 3 4 5 5 3 4 3 5 0 3 4 5 5 4 5 5 4 3 4 3 4 4 4 5 5 5 5 6 11 12 12 12 11 11 11 11 11 11 11 11 11 11 11 11 11 11 11 10 10 10 10 10 9 9 9 8 9 9 9 8 8 8 8 9 9 10 9
4 5 5 4 4 4 5 3 2 2 1 0 2 2 2 3 2 1 0 2 3 5 5 3 4 3 1 1 3 4 5 5 5 5 3 5 4 4 4 5 4 6 5 5 5 5 7 11 11 12 11 11 10 11 11 11 12 11 11 11 11 11 11 11 11 10 10 10 11 11 11 10 9 9 9 9 10 9 9 8 8 9 10 11 10
5 5 5 5 4 4 3 2 2 1 1 3 2 2 2 3 3 2 1 2 3 3 5 5 3 3 1 1 2 3 5 5 5 3 5 5 5 5 6 4 4 5 5 5 5 5 5 7 10 10 11 10 10 11 11 11 11 12 11 11 11 11 11 11 11 11 11 11 11 12 11 11 10 10 9 10 10 10 10 9 9 9 10 11 11
4 4 5 4 4 3 2 2 2 2 2 2 3 3 3 2 2 4 3 2 3 3 3 4 5 3 3 1 0 2 2 2 3 4 5 6 5 5 3 5 4 4 5 5 5 4 5 5 5 4 6 10 10 10 10 11 11 11 11 11 11 11 11 11 11 11 11 12 12 12 12 11 11 10 10 10 10 10 10 10 9 10 10 11 12
3 3 4 4 4 4 3 2 2 2 1 1 2 3 3 4 4 3 5 4 2 2 3 3 1 2 2 2 1 0 1 1 3 4 4 5 6 3 5 4 4 5 5 5 5 5 5 5 5 5 4 6 8 10 12 12 11 11 10 10 10 10 9 10 12 11 12 12 12 12 12 12 11 11 10 10 10 10 10 10 10 10 10 10 11
2 4 4 4 4 3 3 2 2 2 1 1 0 1 1 1 2 2 3 5 3 2 3 2 1 1 3 3 4 2 0 1 4 4 5 6 5 4 4 4 5 5 6 5 5 5 5 5 5 5 5 5 6 8 10 11 12 12 12 10 10 10 10 11 12 12 12 12 12 12 11 11 11 11 10 10 10 10 10 10 10 10 11 10 10
2 3 3 5 5 4 3 3 2 2 1 0 0 0 1 2 2 3 1 1 2 3 4 0 3 1 0 1 4 5 2 1 3 4 5 5 6 6 5 6 6 6 4 4 5 5 5 5 5 5 5 5 5 5 6 6 7 10 11 11 12 12 12 12 13 12 13 12 12 12 12 11 11 10 11 11 10 10 10 10 10 10 11 11 10
2 3 3 3 4 3 3 3 2 1 1 0 1 2 2 2 2 2 4 1 1 2 3 3 1 1 1 1 1 2 3 3 2 3 5 5 4 5 6 5 7 5 4 3 5 5 5 5 5 6 6 5 5 5 5 5 7 10 11 12 12 12 13 13 13 13 14 13 13 12 11 11 12 10 11 11 10 9 10 10 10 10 10 11 10
2 3 2 3 3 3 2 2 2 2 3 1 0 1 2 2 2 1 1 3 3 3 2 3 2 2 1 0 1 1 2 2 3 5 1 4 5 7 5 6 6 4 3 5 5 4 4 3 5 6 6 5 5 5 5 5 8 10 11 12 12 12 12 14 13 13 15 14 14 12 11 11 11 11 11 12 10 10 11 10 9 10 10 11 11
2 3 3 3 3 3 3 2 2 2 2 1 1 1 2 2 0 0 1 1 3 2 3 2 2 1 3 1 1 1 2 4 2 5 2 1 2 3 4 5 5 4 5 6 3 3 3 3 5 5 6 6 5 5 5 5 5 5 7 9 10 10 12 12 12 12 12 15 14 12 11 10 10 10 11 10 10 11 10 10 9 9 9 10 10
2 3 3 3 3 3 3 3 2 2 2 2 1 1 2 2 0 1 0 1 0 3 3 2 1 1 1 0 3 1 1 1 1 2 5 0 3 4 3 3 3 4 3 4 4 3 2 4 4 5 6 6 5 5 5 5 5 5 5 7 11 11 11 12 12 12 11 12 14 12 11 11 10 9 9 9 10 10 10 10 9 9 9 9 11
3 2 3 2 2 3 3 3 3 2 2 2 1 2 2 1 0 1 1 0 1 3 3 4 3 3 3 3 1 1 1 1 1 0 3 4 3 3 3 1 2 3 4 4 3 3 4 3 4 5 6 5 5 6 5 4 5 6 8 10 12 11 11 11 11 11 11 11 13 12 11 11 11 10 9 9 9 9 9 9 8 8 8 9 10
3 3 3 3 3 3 3 3 3 3 2 3 3 2 1 2 1 0 0 0 1 1 1 3 3 3 2 2 2 2 1 2 2 0 2 1 6 5 1 3 3 2 2 3 3 4 5 3 4 6 6 6 5 5 4 3 3 5 6 9 11 11 10 10 11 11 10 9 11 13 12 11 11 11 10 9 9 9 8 7 7 7 8 8 9
4 4 3 3 3 4 4 3 3 3 2 3 2 1 2 1 1 0 0 0 0 1 2 1 1 2 3 2 1 3 1 1 1 2 2 1 1 2 4 4 3 3 4 2 2 2 3 5 5 4 4 5 4 3 3 3 5 4 5 8 9 10 9 9 9 10 10 11 10 13 12 11 11 12 12 10 9 9 7 7 6 7 8 7 7
4 3 3 4 4 4 4 4 4 3 2 3 2 2 1 2 2 2 1 0 0 0 0 0 0 1 0 0 3 3 3 3 3 3 2 2 3 2 2 2 4 4 4 5 5 4 3 2 3 3 4 4 4 3 2 3 3 3 4 8 8 8 8 8 9 10 11 11 12 13 13 13 11 12 13 12 10 9 6 5 6 6 7 6 5
5 4 4 4 4 4 4 5 4 3 3 3 3 3 2 2 1 1 1 0 1 1 0 0 0 0 1 1 2 2 1 1 1 1 1 1 2 2 2 1 1 3 4 3 3 4 4 3 2 3 4 3 3 3 3 3 3 5 8 8 7 7 8 8 9 10 11 11 12 12 11 11 13 13 13 14 12 11 6 5 5 5 5 5 4
4 4 5 5 4 4 4 4 4 3 4 3 3 3 2 0 0 1 0 0 1 0 0 2 1 1 2 1 1 0 1 1 2 1 1 0 2 0 1 2 1 2 5 5 2 1 1 1 1 3 3 3 3 3 3 3 5 8 6 7 7 7 8 9 9 10 10 11 12 12 12 13 10 9 12 11 10 9 6 2 5 5 5 4 4
5 5 6 6 5 5 4 5 4 4 3 3 3 3 2 1 1 0 0 1 1 1 0 0 0 1 2 1 0 0 2 2 2 3 1 2 2 2 0 0 0 2 2 2 1 4 1 3 3 2 2 3 3 4 4 4 4 7 8 6 8 8 9 9 10 10 10 11 12 13 14 14 14 14 13 13 12 12 10 2 4 5 5 4 4
6 7 7 6 5 6 6 6 5 4 4 4 3 3 2 2 1 1 2 1 2 2 1 0 1 0 0 3 3 2 2 1 2 3 3 2 1 1 0 1 0 1 2 2 2 2 3 4 2 2 2 2 4 4 5 5 6 8 9 6 7 9 10 10 10 10 10 11 11 12 13 13 13 13 13 12 12 11 11 6 3 4 5 4 4
7 6 5 6 6 5 5 5 5 5 4 3 3 3 2 2 2 2 2 2 1 1 0 0 1 1 1 1 2 3 3 2 2 4 3 2 2 4 2 1 3 3 3 2 3 0 2 4 2 2 2 3 4 5 5 5 6 8 8 5 5 9 10 11 10 10 10 10 10 11 11 12 12 12 11 11 11 11 10 8 4 4 5 5 5
6 5 6 6 6 6 5 5 4 4 4 4 4 3 3 3 3 2 3 1 1 1 2 1 1 0 1 1 2 4 3 3 2 4 3 2 2 4 4 3 1 3 3 2 3 2 1 1 3 2 2 4 5 3 5 6 6 9 8 5 5 6 9 11 11 10 10 10 9 9 10 9 10 11 12 12 12 12 11 10 6 4 4 5 5
6 5 6 6 6 6 6 6 5 5 4 4 4 4 3 3 3 3 3 3 2 3 2 3 2 0 1 1 1 3 4 3 2 2 2 2 3 3 3 1 3 1 1 2 2 1 2 1 0 3 2 4 5 5 5 5 6 7 5 5 5 5 8 12 12 11 9 10 8 8 8 9 10 12 12 12 12 12 12 11 9 5 5 5 5
6 5 5 6 6 6 6 6 5 5 5 5 4 4 3 4 3 3 4 2 2 2 2 2 3 1 1 2 2 3 3 2 3 1 2 2 3 3 2 2 4 2 3 1 4 3 3 2 2 2 4 6 4 6 4 5 7 7 5 5 6 5 11 12 12 12 10 10 9 10 11 11 11 11 11 11 12 12 11 11 10 7 6 6 6
6 5 5 5 6 5 5 5 5 6 5 5 5 5 4 4 3 4 3 2 3 3 3 2 3 1 2 3 3 3 3 3 3 2 0 1 2 2 1 2 4 3 3 2 0 3 3 2 3 3 2 4 5 5 5 4 6 6 5 6 5 9 10 9 12 12 11 11 11 12 11 12 13 13 11 10 10 11 11 11 11 9 9 8 6
6 6 6 6 5 6 5 5 5 5 5 5 5 5 5 5 4 5 4 3 3 3 4 2 2 2 2 3 3 3 3 1 2 3 2 1 1 1 2 3 3 3 3 3 3 6 3 3 4 5 4 3 5 4 5 5 6 7 5 6 6 8 6 6 9 12 11 11 12 11 12 13 14 14 15 14 13 10 9 8 9 9 9 9 9
6 6 6 6 6 6 6 6 6 5 5 5 5 5 5 5 5 5 4 3 3 4 3 4 3 3 3 3 4 4 3 3 4 3 2 1 1 2 2 2 3 3 4 4 3 5 4 2 3 3 3 3 4 2 5 6 7 7 7 5 5 5 5 5 6 9 11 12 12 12 13 14 14 14 14 14 14 14 12 12 12 11 10 9 9
6 7 7 6 5 6 6 6 6 6 6 6 5 5 5 5 5 4 5 4 4 4 3 3 4 3 3 3 4 5 3 3 3 4 3 3 2 3 2 3 4 4 4 3 4 2 4 4 3 3 3 0 3 2 3 6 6 6 8 7 5 4 4 5 6 6 11 12 13 12 13 14 14 14 14 14 15 15 15 14 14 13 12 10 9
5 6 6 6 6 6 6 6 6 6 6 6 5 5 5 6 6 5 5 5 5 5 4 5 5 3 3 3 5 4 3 3 3 4 3 3 2 3 4 2 3 3 3 4 3 3 4 5 2 2 2 2 1 4 4 3 3 3 4 5 4 5 4 3 5 4 8 11 11 11 12 13 14 14 14 15 15 15 16 16 15 14 13 11 9
7 6 6 6 5 6 6 6 6 6 6 6 5 6 7 6 6 6 5 5 5 5 5 5 5 4 5 4 5 4 3 3 4 4 4 3 3 3 3 2 3 4 3 3 5 4 2 2 3 2 3 2 3 3 3 3 3 5 3 4 3 3 4 5 5 4 6 9 9 10 11 12 13 14 15 14 14 15 15 15 14 14 13 13 11
6 6 6 5 6 6 7 7 6 6 7 6 6 6 6 6 6 6 5 5 5 5 6 6 6 5 5 4 5 3 2 3 4 4 5 4 4 2 3 3 3 3 2 3 4 3 3 4 4 3 2 2 2 3 2 4 5 5 3 3 3 4 5 5 5 5 6 7 7 9 11 11 12 13 14 14 14 14 14 13 13 14 15 14 14
7 6 7 6 6 7 7 7 7 7 6 6 7 7 7 6 6 6 6 6 6 6 5 5 5 5 5 5 5 4 3 3 5 5 4 4 4 3 3 4 4 3 3 3 3 4 4 5 3 4 2 2 3 3 1 2 4 5 6 5 4 3 4 7 6 5 4 3 4 5 7 9 11 14 14 14 13 13 13 12 11 14 16 16 15
8 7 7 7 7 7 7 7 7 7 7 6 6 7 7 6 7 7 6 6 6 5 5 6 6 5 5 5 5 5 5 5 5 5 5 4 4 4 5 5 3 2 3 3 3 4 4 3 3 3 4 3 2 4 3 2 2 2 3 6 6 3 3 3 7 6 4 4 2 4 7 8 9 9 11 13 13 12 12 12 11 14 15 16 15
9 8 8 8 8 7 7 7 7 6 6 6 6 6 6 6 6 6 6 6 6 5 6 6 6 6 6 6 6 6 6 6 6 6 5 6 4 4 5 3 2 2 4 4 3 3 4 3 3 4 1 2 4 3 3 3 4 3 0 1 6 7 7 4 3 6 4 3 5 6 6 6 7 9 10 10 11 12 13 11 11 13 15 15 15
8 8 8 8 8 7 6 6 6 6 6 7 6 6 6 6 6 6 6 6 6 6 5 6 6 6 5 5 6 6 6 9 11 9 8 7 4 5 5 3 4 4 4 3 4 3 3 2 4 2 2 4 4 3 6 3 3 4 4 2 3 5 5 6 5 3 2 3 5 5 7 6 7 7 6 6 7 9 10 11 10 13 13 14 15
8 7 7 7 7 7 7 6 6 6 6 5 7 11 9 7 7 6 5 6 5 5 6 6 6 5 6 6 6 10 12 13 12 12 10 11 9 6 6 4 4 4 4 4 4 5 3 3 5 3 4 5 5 3 2 3 3 3 4 3 5 6 6 6 3 1 1 4 7 7 7 5 5 6 6 6 6 6 6 6 7 8 10 13 14
8 7 7 7 7 7 7 7 7 6 6 6 10 11 12 11 6 5 6 5 5 5 6 6 6 6 6 6 6 7 6 5 5 7 6 5 6 10 10 8 7 6 5 5 5 4 3 4 3 2 2 4 6 3 3 5 3 3 3 3 4 5 5 6 8 5 1 5 5 5 7 5 3 5 6 6 6 7 6 7 10 11 11 12 13
8 7 8 9 8 8 7 7 7 7 7 8 12 11 12 12 9 6 5 5 5 5 6 6 6 6 6 6 4 3 4 4 4 3 2 2 2 3 5 6 7 10 9 7 5 3 3 3 3 4 2 4 4 3 4 2 4 3 3 3 2 3 4 4 4 5 5 4 5 5 7 5 3 5 6 6 6 6 7 9 12 12 13 14 13
3 5 6 6 7 7 7 8 8 8 7 10 12 12 12 12 12 8 5 5 5 5 6 6 6 6 6 5 4 4 4 8 2 3 1 0 1 0 1 2 4 5 7 6 3 1 2 2 3 3 2 2 3 3 1 2 1 3 3 4 3 3 2 4 4 4 7 3 3 3 5 6 4 6 6 7 6 6 7 9 12 12 14 14 13
6 4 2 2 2 3 3 5 6 6 6 9 12 13 12 12 11 8 5 6 6 6 6 6 6 6 6 5 5 5 3 2 2 2 2 2 1 1 2 1 1 2 1 3 3 3 3 2 2 1 1 1 5 4 5 1 2 3 3 4 3 2 3 4 5 5 6 3 3 3 3 5 5 6 6 7 6 7 6 9 12 13 15 15 15
4 4 3 6 4 1 1 0 1 3 3 3 7 10 10 10 9 6 4 4 4 4 5 5 6 7 6 6 6 5 3 3 2 2 3 2 2 2 1 2 2 2 2 2 2 4 4 4 3 1 0 1 5 7 5 2 2 3 2 3 3 2 3 3 3 3 5 2 3 3 4 6 4 6 6 7 7 7 5 7 11 13 14 14 15
5 0 2 3 1 2 3 2 0 3 3 0 2 3 5 6 6 5 4 4 5 5 6 6 6 6 6 6 5 5 5 4 3 1 2 2 3 2 2 2 4 4 4 3 5 5 3 3 3 2 4 6 8 6 4 2 1 1 1 1 1 1 2 4 4 5 4 4 3 4 3 6 3 5 6 6 6 6 6 5 10 14 14 14 15
5 5 4 4 4 4 4 3 3 3 3 2 2 2 3 3 3 5 5 5 5 6 7 5 5 5 5 6 6 6 5 3 4 2 0 3 3 2 3 3 3 4 3 1 3 6 5 4 0 3 7 6 3 1 2 1 0 1 1 5 5 4 4 4 3 4 5 5 3 5 4 5 5 4 6 5 6 5 5 6 8 11 13 14 15
7 6 6 5 3 2 4 5 5 4 3 3 5 2 1 2 5 5 5 5 6 6 6 4 3 3 5 11 8 6 5 3 3 1 3 1 2 3 3 3 3 4 2 1 1 2 2 2 2 5 4 4 4 6 9 8 4 2 5 4 2 2 3 3 3 3 5 3 6 9 5 3 5 4 5 4 3 2 4 7 8 8 12 12 15
5 3 4 5 5 5 6 5 7 7 1 1 4 5 3 2 3 4 5 5 6 6 5 4 2 1 3 5 8 6 4 5 5 4 5 2 2 3 3 3 3 3 2 1 2 2 2 3 2 3 4 7 5 4 5 9 9 6 4 3 1 3 3 2 3 3 2 5 9 10 5 4 5 6 7 5 3 2 3 6 6 7 8 8 9
Wind_Direction
139 143 134 145 140 105 80 286 330 300 332 310 256 279 281 271 270 274 282 290 288 280 272 269 256 249 236 248 224 210 203 201 202 200 198 213 226 236 228 227 230 232 236 241 244 243 243 245 250 256 262 266 269 272 275 278 282 284 286 287 288 292 295 298 302 303 302 303 304 306 308 310 313 316 319 322 325 334 347 354 354 351 356 33 220
142 145 141 175 206 340 337 304 275 275 268 265 251 249 263 273 271 274 278 276 274 268 270 275 276 255 228 237 225 212 197 196 204 205 197 210 225 233 235 228 231 234 239 243 247 250 250 248 251 257 262 264 267 269 272 274 276 279 282 284 287 291 294 300 301 301 302 304 307 311 311 311 311 314 316 317 324 335 342 345 345 345 338 344 344
147 160 167 175 247 252 268 265 268 259 238 246 244 235 240 245 258 268 268 253 252 252 250 267 273 273 241 220 224 181 185 193 206 205 202 213 222 228 244 239 232 236 239 244 247 252 256 259 259 259 259 262 265 267 270 274 277 279 281 284 287 291 295 298 298 300 302 304 307 307 308 310 311 313 313 317 321 327 335 338 337 334 331 329 331
156 167 186 186 227 238 253 253 255 257 240 241 246 242 243 259 258 252 255 267 286 292 270 252 265 268 208 207 175 167 178 186 202 206 211 211 219 232 243 255 244 237 240 243 246 249 253 257 259 259 262 265 267 269 272 275 278 281 283 286 290 293 295 296 297 301 301 302 301 301 304 307 309 309 311 312 314 320 329 330 326 323 323 320 321
187 195 226 217 265 261 262 253 255 256 248 248 264 284 297 292 289 275 270 269 299 295 288 263 265 266 227 189 169 180 177 186 206 203 214 210 211 226 238 254 265 252 243 242 247 247 248 250 252 254 258 261 263 267 270 273 278 281 285 287 290 293 294 294 296 297 297 294 293 296 300 303 306 306 304 304 305 310 315 315 313 312 312 311 311
180 219 235 255 260 250 249 259 252 252 258 270 286 290 285 279 274 336 330 342 303 289 277 280 241 249 220 185 171 187 179 192 208 214 209 214 205 212 231 247 263 265 269 254 246 247 249 249 252 256 260 264 267 269 271 274 277 280 283 286 288 290 291 292 293 292 290 287 287 289 293 295 298 299 296 295 296 298 299 301 301 301 303 303 306
194 201 230 225 245 251 253 254 268 249 249 237 237 258 240 272 330 1 320 309 307 318 329 315 315 324 198 218 181 177 187 201 206 219 213 215 194 221 224 235 248 255 258 261 257 249 248 253 257 259 262 265 269 271 274 275 276 279 282 284 286 287 289 290 290 288 285 283 284 284 285 287 287 290 290 288 288 287 289 289 291 293 294 297 301
200 201 220 227 232 244 252 260 249 227 213 292 211 62 26 55 358 360 343 334 337 316 321 320 339 338 231 184 201 179 191 194 207 219 215 193 214 225 223 229 233 235 241 244 250 254 249 248 251 256 260 265 269 272 275 276 276 277 279 281 283 284 286 288 286 282 280 280 280 281 280 279 278 280 284 285 283 282 282 283 284 289 291 294 298
201 201 209 224 227 239 250 233 221 171 155 256 55 32 41 21 355 313 73 291 309 302 315 338 334 321 311 167 222 192 194 201 207 210 192 202 217 224 223 231 230 232 233 235 244 257 258 251 247 251 257 262 265 268 270 272 275 277 278 279 281 281 283 284 284 281 277 276 277 278 278 278 276 276 278 280 282 282 282 283 285 288 292 296 301
209 208 210 219 212 216 225 200 171 150 60 45 14 27 62 51 351 298 279 279 297 309 321 325 327 326 322 129 261 208 215 209 210 199 200 218 216 220 222 223 230 237 236 237 237 243 257 267 263 260 260 259 260 261 263 264 268 271 272 274 276 278 281 282 282 282 279 274 274 275 275 274 274 274 274 277 280 280 281 281 283 286 291 297 302
209 202 206 203 182 188 191 198 171 108 57 33 9 6 12 30 22 321 306 256 250 282 291 302 318 330 323 307 299 272 271 280 213 200 211 222 219 219 207 222 219 234 243 241 241 242 252 258 265 261 264 269 270 267 265 264 263 265 269 271 271 273 277 280 282 282 279 278 274 273 273 272 272 271 271 272 275 277 278 277 278 283 287 294 300
192 187 172 158 158 166 177 192 135 106 84 57 2 9 349 344 337 333 327 330 325 357 346 331 338 37 9 335 312 360 52 211 230 222 222 235 233 205 216 216 210 230 234 239 240 244 251 259 259 257 264 277 281 281 280 277 275 273 271 270 271 271 271 275 281 280 280 280 278 276 274 274 273 273 272 271 271 273 276 277 275 277 282 287 294
152 150 147 145 145 157 165 128 111 109 117 153 111 330 311 301 302 309 341 357 317 1 351 40 83 16 358 3 331 351 48 219 215 212 224 232 236 225 224 223 228 226 231 230 235 236 242 253 257 262 262 267 281 284 283 282 281 279 277 273 272 270 270 273 279 279 281 278 280 282 279 276 274 273 274 273 271 270 272 275 274 275 276 280 284
142 132 143 147 152 167 152 151 123 109 138 208 227 339 4 4 347 355 2 346 301 317 337 97 22 116 79 328 339 323 295 224 202 222 216 223 223 227 217 218 229 229 227 218 241 244 248 252 258 258 255 254 261 270 278 282 282 278 276 273 269 269 269 272 277 279 282 281 284 285 284 281 277 271 277 276 276 270 269 270 272 272 271 276 277
138 141 152 168 160 155 168 159 144 155 126 294 47 347 356 330 15 70 336 333 280 295 356 31 119 64 139 85 323 360 325 351 313 258 230 229 227 233 227 221 235 224 211 212 238 246 242 242 253 257 256 250 253 256 263 269 268 270 275 275 273 270 269 269 273 277 281 283 288 289 286 284 282 275 280 281 279 270 272 271 269 270 271 272 266
163 163 163 164 165 166 163 161 178 164 161 162 339 325 326 345 21 26 111 359 354 312 31 19 123 100 335 346 235 118 348 311 314 299 299 242 224 236 237 237 232 225 177 218 234 237 252 259 255 257 265 264 261 262 265 266 273 279 279 280 277 269 264 265 267 270 278 284 288 289 288 285 283 283 284 285 275 271 276 274 269 267 269 273 273
171 182 169 175 181 166 168 182 176 183 160 163 180 252 284 275 248 72 98 130 335 323 305 9 27 177 145 106 360 20 228 247 344 289 4 344 283 273 252 243 241 226 216 233 234 228 232 247 254 258 260 263 258 255 261 269 279 279 286 290 283 278 270 263 263 267 272 283 288 290 291 288 285 286 288 285 280 285 283 279 273 267 266 270 272
177 181 184 170 179 176 170 175 207 210 200 212 190 324 311 345 334 153 229 235 180 23 349 328 130 144 131 171 167 180 228 263 45 312 315 288 317 302 245 266 291 280 257 257 245 252 218 245 243 254 257 256 261 264 258 264 270 277 282 286 286 284 276 270 269 270 273 280 287 290 293 292 290 290 288 287 287 291 292 286 279 270 265 264 274
197 183 186 189 176 180 183 196 198 196 217 191 238 251 269 273 158 130 222 116 90 36 16 314 340 9 22 338 286 215 179 99 254 147 352 317 351 346 350 357 271 247 260 260 272 274 261 248 271 268 264 254 254 256 259 261 273 282 280 282 288 289 283 278 276 274 273 277 286 290 292 294 295 293 289 286 284 289 292 289 281 274 265 263 264
198 197 192 191 187 197 195 204 207 217 208 213 232 249 301 327 360 303 204 180 124 80 354 357 76 300 348 342 5 10 27 61 143 150 157 347 332 327 315 16 12 355 287 258 251 247 267 267 258 260 258 261 251 257 271 277 277 275 278 290 295 296 290 283 278 277 275 276 283 290 292 294 297 297 293 288 289 289 288 288 287 280 282 275 268
204 196 199 195 197 196 193 201 214 223 221 222 235 233 230 281 317 39 327 316 150 154 106 358 42 326 342 342 23 60 4 77 97 90 108 112 312 342 317 327 13 355 341 297 272 258 264 261 251 268 290 295 294 267 248 241 259 271 287 295 296 296 295 288 284 281 283 282 281 289 290 291 295 299 300 299 297 295 293 290 290 293 291 287 273
209 206 202 203 203 196 198 201 208 217 233 233 242 232 239 237 250 245 197 262 354 138 158 223 243 291 166 263 42 356 18 1 17 38 32 75 113 342 300 14 18 307 330 350 339 323 315 334 335 330 319 299 282 265 251 258 269 288 292 293 298 301 299 296 294 292 290 287 287 289 290 291 293 297 301 304 303 300 303 300 297 293 292 286 277
201 210 209 210 207 200 202 210 207 212 227 227 236 229 228 236 238 170 147 205 297 6 44 160 200 312 348 60 92 106 132 97 315 5 99 47 27 345 328 288 245 322 325 331 316 318 321 348 338 325 280 303 327 354 356 325 313 299 298 301 303 302 299 300 301 297 293 290 289 291 288 286 292 296 299 303 306 304 302 304 292 292 296 301 294
205 204 216 210 207 206 210 206 211 214 229 220 227 223 245 207 185 128 111 233 234 111 101 38 4 7 11 11 345 188 144 164 202 158 122 168 130 211 271 317 346 250 279 318 275 330 280 301 215 257 309 318 338 347 333 313 300 299 315 315 315 307 306 308 309 305 297 292 294 297 298 299 295 296 297 297 300 298 299 279 285 289 292 295 293
210 207 217 204 197 204 206 205 217 218 224 210 223 227 219 207 213 192 198 187 184 173 290 254 200 58 338 319 331 152 262 229 167 163 103 113 121 70 278 142 196 291 292 2 319 312 269 311 330 315 325 343 341 352 333 318 310 312 327 322 313 309 310 312 315 313 304 299 302 305 307 307 306 304 299 297 298 300 305 292 264 277 280 281 273
201 210 210 200 198 202 199 202 205 212 215 217 217 219 203 201 206 222 223 217 189 166 180 193 167 190 301 25 352 342 294 222 190 146 161 135 73 126 295 330 352 281 297 347 314 17 321 324 334 335 356 350 354 347 347 335 330 322 327 324 319 319 319 322 324 322 318 313 312 312 314 314 314 314 310 304 301 301 301 311 276 258 271 268 255
204 209 202 197 199 200 204 202 204 208 211 217 224 219 208 197 223 223 239 213 203 154 153 359 2 2 27 17 324 326 318 285 184 213 183 187 165 178 140 22 348 1 344 316 331 282 247 292 299 323 339 348 360 350 338 331 317 319 328 328 322 320 323 326 327 326 321 317 319 323 321 320 321 318 315 313 314 309 305 308 297 254 248 246 238
204 198 202 194 197 202 203 211 207 205 206 208 212 215 209 210 234 223 253 218 209 222 230 206 252 282 301 290 356 327 311 289 231 219 206 190 160 146 122 115 104 333 336 342 348 308 286 310 318 277 328 357 336 336 317 323 326 331 332 332 325 322 322 324 323 324 319 317 322 329 322 326 331 333 337 335 325 321 316 313 308 266 259 247 235
196 199 197 197 200 198 199 206 204 202 203 207 206 210 209 217 219 230 245 253 227 242 243 246 268 229 314 315 290 288 301 314 313 233 198 165 192 177 161 147 159 109 315 333 286 258 302 246 327 294 327 332 333 324 330 324 319 327 326 327 324 315 317 322 321 322 318 315 329 324 329 345 348 347 344 336 326 325 323 316 313 280 282 261 245
194 198 194 196 200 203 200 205 204 197 199 199 200 204 196 215 224 232 239 243 252 283 262 234 277 273 299 314 311 312 293 307 295 262 167 184 185 194 199 157 147 174 181 229 280 221 258 304 212 267 324 325 328 326 327 317 315 328 330 330 323 320 324 324 327 327 325 325 332 345 349 351 350 347 345 341 339 334 329 321 315 306 281 265 240
195 198 196 198 199 205 201 205 198 203 199 196 194 199 197 210 220 231 246 228 235 257 265 248 263 270 297 313 309 300 297 284 298 320 335 172 218 205 209 150 183 175 161 163 246 285 184 267 289 252 269 303 320 321 317 318 321 337 335 331 326 324 331 330 330 328 330 335 344 347 346 347 346 346 348 347 344 341 334 327 322 317 317 295 261
200 197 199 201 198 202 205 203 201 200 200 201 191 195 194 209 217 221 233 210 231 244 263 258 270 259 278 293 291 290 299 290 277 279 271 270 199 204 207 200 201 186 153 158 190 264 242 223 268 293 295 299 315 319 322 327 330 344 339 331 326 331 339 335 332 333 335 342 347 346 347 347 344 343 344 346 348 345 335 321 316 318 313 308 299
197 199 203 205 201 202 200 202 201 199 201 203 198 191 192 207 213 216 222 208 221 246 253 279 270 266 260 264 277 279 276 281 261 261 263 237 184 221 225 201 219 187 167 172 205 264 299 245 244 262 309 354 315 348 340 332 337 338 337 335 343 348 342 344 337 334 342 353 354 351 348 343 342 342 341 341 342 342 341 337 332 328 326 320 309
196 203 204 205 201 200 201 203 202 202 203 206 204 191 200 207 215 208 216 208 210 231 233 261 270 256 252 251 269 273 262 245 264 273 264 281 279 282 250 200 220 206 193 170 212 216 267 318 309 301 301 346 314 288 338 333 331 335 340 339 341 350 349 340 345 338 342 350 352 348 342 339 340 341 340 340 339 339 340 340 338 335 335 333 318
202 202 203 203 200 200 205 206 204 206 204 207 204 198 207 209 213 216 212 205 207 217 222 237 246 241 243 246 266 278 289 282 270 268 278 275 260 243 257 207 219 230 198 198 159 225 257 274 261 301 283 312 272 291 320 316 298 291 312 324 330 331 341 333 342 339 338 341 341 338 335 336 340 340 340 340 340 341 342 340 341 342 341 339 329
202 208 203 202 197 200 205 207 205 208 208 209 208 206 208 208 211 217 216 213 212 216 220 229 234 223 227 237 254 260 277 286 285 291 285 267 257 246 253 235 206 234 209 193 208 207 211 243 294 233 278 320 295 287 291 303 317 329 313 297 310 321 330 342 341 328 325 325 329 333 332 337 339 338 337 339 342 344 344 341 343 347 349 350 354
207 202 206 200 200 200 205 207 207 209 209 207 210 214 214 210 212 215 218 218 221 220 220 225 229 223 225 222 244 246 234 257 278 276 274 283 273 239 244 241 222 239 215 202 216 196 197 239 274 276 285 281 258 293 333 3 333 330 329 336 316 320 324 320 318 316 312 327 338 331 331 338 337 335 332 338 345 345 345 343 345 353 357 360 359
209 203 201 200 201 206 208 208 206 209 208 206 210 214 214 214 213 218 218 220 223 224 225 227 231 226 225 228 235 236 235 228 256 266 273 269 284 275 265 262 242 222 223 234 199 191 200 236 234 292 328 286 328 300 284 28 342 328 327 324 333 331 349 334 326 321 324 338 338 336 336 339 336 333 331 336 341 345 346 346 353 360 360 0 1
208 206 205 204 209 208 211 207 209 207 207 206 208 213 216 214 213 214 219 221 226 226 227 226 228 227 226 229 233 231 233 230 234 243 246 249 240 245 240 246 243 201 229 237 209 207 211 241 268 236 257 277 229 300 298 335 291 239 278 322 323 310 328 324 320 321 321 331 321 310 320 322 324 326 326 330 336 345 350 349 1 5 2 360 1
211 209 206 206 212 210 212 209 212 208 208 209 209 212 214 213 212 217 217 219 223 226 231 231 229 227 224 224 229 231 227 228 221 231 221 239 234 248 250 240 249 225 246 238 214 219 226 222 234 278 276 280 320 272 292 350 355 355 306 269 304 316 327 317 277 303 307 341 339 344 331 338 335 327 330 333 335 343 350 353 3 7 2 357 360
214 213 212 210 210 212 215 212 212 208 207 213 210 207 210 215 212 217 218 221 223 227 234 239 236 234 234 231 231 231 225 227 223 223 221 216 216 235 249 213 225 219 242 242 224 205 227 221 282 260 301 314 291 319 331 335 341 293 295 352 286 298 302 317 311 278 270 335 334 340 331 336 328 327 330 331 332 343 345 347 358 1 357 358 359
215 216 213 212 210 212 213 214 213 211 212 211 212 211 206 203 207 214 216 220 222 224 228 235 243 236 235 230 234 236 238 240 243 244 241 235 225 214 230 197 214 214 224 226 217 219 216 246 260 274 313 297 291 300 278 260 280 295 318 325 326 316 329 319 303 280 329 8 344 337 323 323 326 318 331 332 326 345 337 347 356 351 354 356 358
213 214 211 208 210 211 210 209 211 214 214 212 214 214 215 214 203 207 212 220 219 223 222 221 230 234 237 237 238 251 262 280 279 280 281 266 241 227 230 220 208 198 207 215 232 203 195 221 238 218 233 273 287 287 275 283 289 294 288 310 305 323 336 339 327 319 324 23 341 330 319 322 341 328 325 327 331 339 340 343 348 353 357 359 360
213 211 209 209 209 206 206 206 209 212 215 219 215 214 211 209 206 200 204 211 215 218 222 224 227 229 235 241 243 237 237 234 240 246 236 175 164 203 221 235 233 226 214 201 213 191 193 225 248 243 214 257 276 309 295 299 305 320 309 321 296 309 318 323 310 313 295 16 346 331 310 315 351 342 335 333 335 334 334 333 351 357 1 0 360
279 203 214 212 212 209 203 204 210 209 214 216 214 210 207 206 209 207 207 211 216 223 225 228 231 232 235 240 249 249 251 264 213 143 142 124 162 101 247 245 256 241 233 237 246 230 166 183 215 258 219 237 296 279 241 281 310 305 315 330 320 324 299 303 289 298 305 357 354 326 312 313 1 346 335 331 334 333 330 340 347 355 359 360 359
25 10 14 148 156 200 229 224 219 214 216 217 210 210 210 210 210 208 216 215 220 224 227 228 231 232 230 227 234 248 237 179 155 146 121 115 81 60 32 19 10 345 358 215 208 149 151 168 158 219 323 31 293 280 288 285 298 290 307 296 311 322 310 286 284 284 288 352 356 322 294 323 355 342 336 328 333 330 329 336 345 355 360 0 360
119 107 51 3 354 15 63 40 316 275 263 284 218 215 215 213 209 209 222 229 230 235 236 234 233 233 228 222 220 222 191 185 182 164 144 148 122 88 75 49 71 93 61 77 98 92 85 86 68 359 360 206 260 270 271 270 229 238 219 232 254 250 265 280 289 279 296 353 359 35 339 322 345 344 333 332 331 325 327 337 350 357 359 358 357
322 271 160 140 146 314 334 4 163 230 212 133 296 268 249 244 240 240 231 228 231 233 236 231 229 228 226 212 195 180 181 185 160 127 153 142 103 122 119 100 101 86 77 65 65 90 99 102 138 152 34 330 295 273 279 295 302 273 280 259 95 11 353 7 352 325 317 337 34 29 335 320 348 349 321 322 322 320 330 351 351 357 360 357 357
210 230 222 216 214 213 221 223 217 221 231 174 165 246 267 269 247 243 239 237 241 244 243 238 228 218 204 189 176 165 169 185 172 159 272 154 125 140 143 137 135 115 76 29 78 82 90 105 116 263 222 239 289 11 52 200 171 231 49 43 14 359 14 342 337 334 326 333 352 12 332 306 338 338 321 322 319 310 331 359 352 355 359 357 359
196 200 201 211 210 216 236 250 242 236 230 169 176 180 240 264 243 243 234 228 238 238 247 239 219 224 212 183 168 164 163 172 141 92 4 209 159 176 183 169 160 131 102 5 79 78 53 19 71 352 344 4 49 49 42 52 75 66 67 56 334 13 12 346 342 312 302 356 24 356 331 305 318 332 328 300 309 309 14 2 352 356 1 1 358
223 218 230 229 226 219 217 225 234 233 215 81 68 27 346 293 240 242 241 232 235 233 219 207 192 180 262 188 161 153 156 135 104 64 43 88 163 185 201 184 181 156 189 184 114 76 41 43 14 16 39 29 35 41 35 37 47 52 60 60 28 79 32 356 340 322 336 28 1 349 323 322 352 357 349 338 5 325 17 355 356 5 4 1 359